Simultaneous Nadir Overpasses (SNOs) Predictions

Prediction of SNOs near US between AQUA and NPP Satellite Orbit:

Table of predicted SNOs near US for the next 10.0 days since TLE Epoch: 7/31/2012
Index Date (AQUA) Time (AQUA) AQUA Lat,Lon Date (NPP) Time (NPP) NPP Lat,Lon Distance(km) Time Diff (sec)
1 08/01/2012 07:19:13 48.40, -76.67 08/01/2012 07:18:46 48.78, -78.86 166.31 27
2 08/01/2012 08:57:41 49.88,-100.79 08/01/2012 08:59:47 50.45,-103.50 203.12 126
3 08/03/2012 18:16:54 49.94, -80.19 08/03/2012 18:08:35 49.68, -81.69 111.67 499
4 08/03/2012 19:55:47 49.94,-104.91 08/03/2012 19:50:03 49.57,-107.02 156.95 344
5 08/03/2012 21:30:56 36.59,-124.99 08/03/2012 21:27:41 36.14,-127.51 230.76 195
6 08/09/2012 06:31:41 40.97, -66.94 08/09/2012 06:30:08 41.33, -69.03 179.35 93
7 08/09/2012 08:08:04
